RH
10 9 8 7 8 8 8 8 8 9 11 13 13 14 14 15 16 16 15 14 15 15 15 17 18 19 20 22 22 23 23 23 24 24 23 26 31 31 30 28 28 31 36 38 37 37 35 36 40 43 45 46 44 41 40 40 40 43 44 45 43 43 43 45 48 46 46 49 49 48 47 49 52 51 53 55 58 60 60 64 66 65 65 67 68 68 69 71
10 10 9 8 7 8 8 8 8 8 9 11 12 13 13 13 14 15 16 15 14 14 15 15 17 18 19 21 21 22 22 23 24 24 24 27 31 31 28 27 28 30 34 35 35 36 37 37 40 43 45 45 45 43 41 39 40 43 45 44 43 43 41 42 47 46 46 49 49 49 46 47 49 49 50 54 57 58 59 62 62 61 61 61 61 63 63 65
10 10 10 9 8 7 7 8 8 8 8 9 11 12 12 13 13 13 15 15 14 13 13 15 15 17 19 20 20 21 22 21 23 25 27 29 30 28 27 27 28 29 30 31 32 33 37 40 41 42 45 45 45 45 43 41 42 42 42 43 41 42 42 41 44 45 46 47 48 49 46 46 48 47 47 51 53 54 57 58 58 59 60 59 59 59 59 60
9 9 9 9 9 8 8 7 7 8 8 8 9 10 11 12 12 12 13 14 15 14 14 14 14 16 18 19 19 21 20 21 23 25 28 30 29 27 27 26 26 29 28 28 30 33 37 41 42 43 46 47 46 46 45 43 42 42 41 41 39 40 43 42 42 44 45 46 47 48 46 47 47 46 47 49 50 51 53 53 52 54 55 55 56 57 57 57
9 9 9 9 9 9 8 8 7 7 7 8 8 8 9 10 11 12 12 12 13 14 14 13 14 14 16 18 19 19 20 22 23 24 26 28 28 27 27 26 26 28 27 27 30 35 38 41 42 42 45 48 48 48 47 45 42 40 41 40 38 39 42 42 41 42 43 44 46 46 47 48 46 46 47 47 49 50 50 50 48 48 49 50 52 54 54 54
9 8 8 9 9 9 9 8 8 7 7 7 7 7 7 8 9 10 11 11 11 12 14 14 13 13 14 16 18 18 19 22 23 23 24 25 27 27 26 26 26 27 27 27 31 37 38 41 43 41 43 46 48 49 48 47 44 42 42 41 39 39 41 42 41 40 41 42 44 45 46 46 45 46 45 45 47 48 48 50 49 48 48 48 50 50 51 52
9 9 8 8 8 9 8 8 8 8 7 6 6 7 7 7 7 8 9 10 10 10 12 13 13 13 13 14 16 17 18 20 22 23 23 23 25 25 25 26 26 27 27 26 31 37 39 42 44 42 42 42 44 47 46 47 47 46 46 44 42 42 43 42 41 40 39 41 43 43 45 46 46 46 46 45 46 46 47 49 49 49 49 49 50 49 49 50
10 9 9 9 8 9 8 8 8 8 8 7 7 6 7 7 7 7 7 8 8 9 9 11 12 13 14 13 14 16 17 19 20 22 22 22 23 24 25 26 27 27 25 25 31 37 39 41 42 40 40 38 40 43 43 45 47 48 47 46 45 46 46 44 43 42 42 44 46 45 45 46 47 47 46 47 47 45 45 47 48 47 47 48 49 48 48 48
10 10 9 9 9 8 8 8 8 8 8 8 7 7 6 6 6 6 6 6 6 7 8 8 10 11 13 13 13 14 16 18 20 21 21 21 21 22 24 25 26 25 23 25 31 37 39 39 38 37 36 33 36 40 41 43 45 46 48 49 49 50 50 47 46 46 46 48 48 48 48 45 46 47 46 47 48 45 43 44 44 44 45 46 47 47 49 50
11 11 10 10 9 9 8 8 8 8 7 7 8 7 7 6 6 6 5 6 6 6 6 7 8 8 10 12 13 14 15 16 18 20 21 20 20 20 22 24 24 25 23 25 30 34 37 38 38 36 33 31 33 37 40 41 43 45 47 50 52 52 53 51 49 48 48 49 48 49 51 47 46 48 48 48 49 46 43 42 42 42 44 45 47 47 49 50
12 11 11 10 10 9 9 9 8 8 8 7 7 7 8 7 6 6 5 5 5 5 6 6 7 7 8 9 11 13 14 15 16 19 20 19 19 19 21 22 24 24 23 26 28 30 34 37 38 36 33 31 32 35 38 39 43 46 47 50 52 52 55 53 51 49 48 50 49 48 51 49 48 51 50 49 50 48 45 43 41 42 44 45 48 49 50 50
12 11 11 11 10 10 9 9 9 9 8 8 7 7 7 7 7 6 6 5 5 5 5 6 6 6 7 7 9 11 12 14 16 18 19 19 19 19 20 21 24 24 23 26 28 29 33 36 37 37 34 32 33 35 38 40 42 45 47 49 50 50 54 55 54 51 48 50 50 49 51 51 52 54 51 48 49 50 47 46 44 43 44 46 48 51 51 50
11 11 11 11 11 10 10 10 9 9 9 8 8 7 7 7 7 6 6 6 5 5 5 5 5 6 7 6 7 8 9 12 15 17 18 19 19 20 20 20 23 24 24 25 26 28 33 34 35 36 33 32 34 35 37 39 42 44 45 47 48 49 51 52 53 53 49 49 50 49 50 52 56 54 50 50 49 50 50 46 46 45 44 46 48 51 52 49
11 10 10 10 10 11 11 10 10 9 9 8 8 7 7 6 6 6 6 6 6 6 5 5 5 5 6 6 6 7 8 9 12 17 18 18 19 19 20 21 22 23 23 23 24 27 32 32 33 34 33 32 33 34 37 40 42 44 43 45 49 50 51 50 51 55 51 49 49 49 49 53 55 53 51 51 50 50 50 46 46 47 47 47 48 49 50 48
11 10 9 9 9 10 11 10 10 10 9 9 8 8 7 6 6 5 6 6 6 6 6 6 5 5 5 5 5 6 7 7 9 13 16 18 19 19 19 21 22 22 23 23 23 28 31 32 33 34 33 33 34 35 37 40 43 44 43 46 47 49 52 48 49 54 53 50 51 49 50 53 53 51 50 51 51 50 49 47 47 48 49 49 49 48 49 48
12 11 10 10 9 10 10 10 10 10 9 9 8 7 6 6 6 7 8 7 7 6 7 6 6 5 6 5 5 5 7 7 7 9 12 16 17 19 19 19 21 21 21 21 23 27 30 31 34 35 33 33 34 36 38 41 42 42 43 45 45 47 50 48 46 50 52 52 52 50 49 51 50 50 52 53 53 53 52 51 49 49 51 51 49 49 49 49
13 12 12 11 10 10 10 10 10 10 9 9 8 7 7 7 8 9 9 9 7 7 8 7 7 6 6 5 5 5 6 6 7 7 9 12 15 18 19 19 19 21 20 20 22 27 29 31 34 35 34 34 33 34 38 40 40 40 40 41 43 44 46 48 47 48 50 51 52 52 50 50 49 51 55 55 53 56 56 54 52 51 52 52 50 49 50 49
13 13 13 12 11 10 10 10 10 10 9 8 8 9 10 9 9 10 9 9 8 9 9 9 8 7 6 5 5 5 6 6 7 7 8 9 12 16 18 19 19 20 19 19 23 27 28 30 33 34 35 35 35 35 38 36 35 37 38 37 39 39 41 44 45 45 48 50 50 53 52 49 48 50 56 57 55 58 58 54 53 54 53 53 51 51 51 51
14 14 14 14 13 11 10 10 10 10 9 9 9 10 11 9 9 9 9 9 9 9 9 9 8 7 6 5 5 5 5 6 6 6 7 8 10 13 16 17 19 19 19 18 22 26 27 29 32 35 35 36 37 36 37 35 33 34 36 36 35 35 37 38 40 41 45 49 50 50 50 47 46 49 55 58 57 58 57 54 53 55 55 55 53 53 53 53
15 15 15 14 14 12 11 10 11 10 10 11 11 10 11 10 10 10 9 8 8 8 8 8 8 7 6 6 5 6 5 5 6 6 7 7 8 11 13 16 17 18 18 17 21 24 27 29 31 33 34 35 37 36 34 34 34 33 33 34 34 33 34 34 38 41 43 47 48 47 48 47 46 49 54 58 59 59 56 53 53 54 55 56 55 54 55 54
16 16 15 15 14 13 11 11 11 10 11 13 11 10 12 12 12 12 11 8 8 8 7 7 8 8 7 7 6 6 6 6 6 6 6 7 8 9 11 13 15 16 16 17 18 22 25 27 29 31 32 33 34 34 33 33 33 31 31 31 31 31 32 33 36 39 41 44 47 48 48 47 47 51 53 56 57 58 57 54 53 54 55 56 57 56 55 56
16 16 16 15 15 14 11 11 11 10 12 14 12 12 13 13 12 12 12 11 9 8 7 7 7 8 7 7 7 7 7 7 6 6 6 7 7 9 10 11 12 14 15 16 17 19 21 23 27 30 31 32 33 33 32 32 32 31 30 30 29 30 31 33 36 38 39 42 47 49 47 48 50 51 52 53 55 57 57 55 53 54 56 55 56 57 57 57
16 17 16 16 15 14 12 11 11 10 13 14 13 13 13 12 11 11 11 11 10 8 7 8 7 7 7 7 7 7 7 7 7 6 6 7 7 8 9 9 11 12 14 15 16 18 18 19 25 30 31 32 32 31 30 30 31 30 30 29 28 29 30 32 37 40 40 43 48 51 50 51 50 48 48 50 53 55 55 56 54 53 55 55 56 58 57 58
17 16 17 16 16 15 12 11 11 10 13 15 14 13 13 11 10 11 11 11 11 9 8 8 8 7 7 7 7 7 7 7 7 7 6 6 6 7 8 8 10 11 12 14 15 15 15 19 26 29 30 30 29 30 29 28 30 30 29 28 26 28 30 33 37 39 42 45 48 50 52 53 49 45 46 46 50 52 51 52 53 52 55 56 56 57 57 59
17 17 17 16 16 16 13 12 11 11 12 14 14 14 13 11 9 10 11 11 12 11 8 8 8 8 7 7 7 7 8 7 7 6 6 6 7 7 8 8 9 9 12 13 15 14 13 19 25 26 27 28 27 28 29 27 29 29 29 28 26 28 33 36 37 39 44 47 46 46 50 51 49 46 44 45 49 50 49 49 50 51 54 56 56 57 58 60
17 17 17 16 16 16 14 14 13 12 12 13 14 14 14 12 10 10 13 15 14 11 9 8 9 8 7 8 8 7 8 7 6 7 7 7 7 8 9 8 9 9 11 12 13 13 13 17 24 25 25 25 25 27 28 26 28 30 29 29 28 31 36 37 37 39 45 46 42 42 45 48 49 45 42 45 49 49 48 49 50 50 53 54 55 58 59 60
17 17 17 17 16 16 16 14 12 11 11 12 14 15 14 13 11 10 14 19 16 12 9 8 9 9 9 8 8 7 8 7 7 7 7 7 8 8 8 9 8 8 10 10 11 12 11 14 19 23 24 24 25 27 28 27 27 29 29 30 33 34 36 35 36 39 41 41 40 41 44 48 47 43 42 44 47 48 48 50 51 50 51 53 54 57 59 60
18 17 16 17 17 17 16 14 12 11 11 12 13 14 15 13 11 11 16 20 17 13 11 9 9 9 9 9 8 7 8 8 8 7 7 7 8 7 8 9 8 8 9 9 10 11 11 11 14 18 20 22 25 26 28 27 26 28 29 30 31 33 35 35 36 39 40 40 42 43 43 45 47 44 43 45 45 46 46 48 51 51 51 53 54 57 59 61
19 18 17 16 16 17 17 14 13 11 11 12 12 13 14 12 11 14 18 20 17 14 12 10 9 9 9 9 9 8 8 8 8 8 8 8 8 7 8 8 8 9 8 8 9 9 10 10 12 15 16 19 24 26 27 26 25 27 28 29 30 33 35 36 37 40 42 41 42 42 41 43 47 46 44 46 45 43 44 47 50 51 53 54 55 57 58 61
20 18 17 16 16 16 17 15 13 12 12 11 11 12 11 12 16 17 17 18 17 14 13 12 11 10 10 10 9 8 8 8 9 9 8 8 8 8 8 8 8 9 10 10 9 8 8 9 11 14 14 17 21 23 25 26 25 25 27 28 30 32 34 38 43 43 44 45 41 39 40 41 44 45 42 43 42 42 45 49 51 51 54 54 54 56 58 61
20 18 17 16 16 16 17 16 14 13 13 12 12 11 11 15 20 21 17 16 17 15 15 14 13 12 11 11 10 8 8 8 9 9 9 9 9 8 8 8 8 10 12 12 10 9 9 8 10 12 13 16 19 20 23 25 25 24 27 29 28 32 36 40 45 43 43 46 40 37 40 41 43 42 41 41 40 42 47 49 50 52 53 53 53 55 58 60
20 19 17 16 16 16 17 16 14 13 12 13 13 12 14 16 17 18 18 18 17 17 16 16 15 14 12 12 11 9 8 9 8 9 10 10 10 10 9 9 10 9 11 13 10 10 10 8 9 10 11 15 18 20 22 24 25 23 27 30 29 33 36 37 43 44 43 42 37 35 39 42 42 39 41 46 44 45 47 47 48 50 51 53 54 55 59 61
20 19 17 16 16 15 17 17 14 12 12 13 13 15 19 18 14 16 20 19 18 18 18 16 16 16 14 12 12 11 9 9 8 9 10 11 10 10 10 10 10 9 10 12 11 11 11 10 9 9 10 13 16 20 21 23 25 23 25 30 30 32 33 35 42 41 36 36 36 36 39 44 40 36 43 49 47 48 51 49 47 47 50 54 55 57 59 62
19 18 16 15 16 15 17 18 15 13 12 13 14 16 18 17 17 21 23 22 20 18 18 17 16 17 15 13 13 12 11 9 9 9 10 11 10 10 10 10 10 10 10 12 12 12 12 12 10 9 8 10 13 19 20 22 24 23 26 28 28 31 30 32 37 33 29 36 41 39 41 43 38 37 43 45 43 47 52 52 49 46 49 54 57 59 61 62
19 18 16 15 15 15 17 17 15 13 12 13 17 18 18 16 19 24 24 22 20 18 17 18 17 17 16 14 14 12 11 10 10 10 10 10 11 11 11 10 10 12 11 11 13 13 12 12 11 10 9 8 11 16 18 19 22 25 26 24 24 27 27 28 31 29 30 38 45 43 41 42 39 38 43 44 44 48 51 53 52 50 52 54 57 61 61 62
19 18 16 15 16 16 17 17 15 13 12 15 17 18 18 17 18 23 24 20 18 17 17 18 18 18 17 15 14 13 12 11 11 10 10 11 10 11 11 11 11 11 10 11 13 13 12 12 12 11 9 8 9 12 14 17 23 26 23 21 22 24 26 27 27 29 31 33 40 45 45 46 42 37 42 46 46 49 53 54 54 54 56 56 57 60 63 64
19 18 17 15 16 17 17 17 16 13 13 14 16 17 19 16 16 23 23 18 17 17 19 20 18 18 18 17 16 14 12 12 11 10 10 10 10 11 11 11 10 10 10 11 12 13 12 12 12 11 10 9 8 10 13 15 20 22 22 23 23 23 25 26 26 30 31 30 39 47 49 49 42 35 42 49 48 50 53 53 54 56 56 56 59 61 64 66
20 18 17 17 17 17 17 17 16 14 14 16 20 23 21 16 16 20 20 17 17 18 19 21 19 17 18 18 17 15 13 12 12 11 10 10 11 12 12 12 12 10 11 11 11 13 12 12 13 12 10 10 9 10 13 14 16 19 22 25 25 24 26 25 25 26 27 34 48 53 51 48 41 40 46 49 50 52 52 53 54 56 57 57 60 62 65 67
21 18 18 18 17 16 18 18 17 16 15 18 23 23 18 17 19 18 17 17 18 19 20 21 20 18 18 18 17 16 14 13 13 11 11 12 13 14 14 13 13 11 10 11 12 14 13 13 15 13 11 11 10 10 13 16 18 19 23 26 24 24 25 24 25 24 24 38 51 51 51 48 41 44 48 48 50 52 52 54 55 56 57 57 59 62 66 68
22 20 21 19 17 18 19 18 18 18 16 18 22 20 15 17 19 16 16 17 17 19 20 21 20 18 18 18 17 17 15 13 13 12 12 13 14 15 14 13 13 13 12 12 13 15 13 13 16 15 12 11 11 10 13 17 18 18 21 23 22 22 22 22 24 23 27 43 55 51 47 45 41 44 47 47 50 51 52 55 55 56 56 56 58 63 67 69
22 22 23 21 20 21 19 17 19 21 22 21 20 19 17 17 18 17 16 17 18 19 19 21 21 20 19 17 16 17 17 16 15 14 14 15 15 17 16 15 16 15 15 14 14 15 14 15 18 16 12 13 14 14 16 18 18 19 20 21 21 21 21 22 24 27 31 43 51 49 44 43 42 44 46 47 48 50 53 55 55 57 57 58 61 64 67 71
23 23 24 22 22 22 18 19 22 24 25 22 18 16 16 16 19 19 17 16 19 19 19 21 22 21 19 17 16 18 19 19 19 17 17 18 19 19 18 17 17 16 15 16 16 16 17 18 18 17 15 16 17 16 18 20 21 21 20 20 20 20 20 21 24 29 35 40 45 47 45 44 45 45 46 47 48 50 55 56 56 59 61 61 63 65 69 72
24 24 24 24 23 21 18 20 23 24 24 21 17 14 14 16 18 18 17 18 20 20 20 22 23 21 19 17 17 19 21 22 21 20 19 20 22 21 18 17 17 15 15 14 16 17 17 17 17 20 23 23 21 20 20 22 24 23 22 22 21 19 20 22 24 31 38 42 45 48 47 44 43 46 48 48 50 53 56 59 63 65 66 66 68 69 71 73
24 24 25 26 24 21 21 22 21 24 26 22 18 15 14 15 18 17 18 20 21 21 22 23 23 21 19 18 18 20 22 23 22 21 21 22 23 22 20 19 17 15 14 13 16 16 15 18 18 19 25 26 24 24 23 23 26 25 26 25 23 23 24 25 29 34 37 38 42 43 45 44 43 46 50 50 53 56 58 62 67 70 71 71 73 74 74 75
24 24 26 28 25 23 24 24 22 23 25 23 19 17 15 17 17 17 19 20 21 23 24 24 23 21 20 20 19 20 23 23 22 24 24 24 24 23 21 19 17 14 13 13 15 14 14 18 20 18 22 24 24 25 22 22 25 24 27 28 26 27 27 26 29 31 31 36 40 40 40 43 46 49 51 52 54 58 60 62 66 70 72 72 73 75 75 76
25 25 28 29 29 27 25 25 24 24 24 23 21 18 16 16 18 18 19 19 21 23 24 24 23 22 21 21 20 22 23 24 24 25 25 25 26 24 21 20 17 16 16 14 14 16 17 19 22 22 22 23 26 26 22 22 24 24 27 29 28 28 27 26 28 28 29 36 42 41 40 42 47 51 51 52 56 59 61 61 65 69 70 69 71 72 73 75
26 28 31 31 29 29 27 26 25 25 25 22 20 18 16 17 19 20 20 19 19 21 23 24 23 22 21 21 22 23 24 26 27 26 26 27 28 26 22 19 17 17 19 16 14 17 19 18 21 23 22 22 24 23 22 23 25 26 28 28 30 31 30 28 28 28 31 35 37 41 44 44 46 50 51 52 55 58 60 63 67 69 68 68 70 70 71 73
26 28 30 31 33 32 29 28 27 26 25 22 21 19 17 18 20 21 20 19 18 19 22 24 23 22 22 22 23 23 25 28 29 27 27 28 27 26 23 20 19 17 18 17 16 19 21 18 20 23 25 26 25 23 24 26 28 30 34 35 34 35 33 30 31 34 35 34 34 41 46 46 47 51 51 53 57 60 65 68 68 68 68 68 69 68 68 68
27 28 30 33 37 35 31 31 31 29 28 26 24 22 20 20 21 21 20 19 20 19 19 23 25 24 24 24 23 25 28 29 28 27 29 28 27 26 24 22 21 19 18 17 18 20 22 21 22 26 29 30 29 29 29 29 31 35 38 39 40 40 38 36 38 41 42 41 41 44 48 49 50 51 52 55 60 64 67 67 66 66 67 67 67 65 64 65
30 32 33 36 39 38 36 37 38 38 36 31 27 25 22 20 21 20 19 19 20 20 18 22 27 25 23 25 23 24 29 32 30 27 29 30 28 26 25 24 22 21 21 19 19 21 21 22 27 33 34 32 30 32 33 32 34 37 37 38 39 40 41 42 43 44 44 47 48 46 47 49 50 52 54 57 60 62 62 62 62 64 65 64 62 60 61 64
30 33 37 41 43 42 43 43 42 41 37 31 30 28 23 21 21 19 20 19 20 20 19 21 24 24 24 27 26 26 29 32 32 29 28 29 28 26 25 25 23 23 23 22 21 23 22 23 29 34 35 33 31 33 34 33 32 34 35 36 37 39 41 42 43 43 44 47 48 44 43 47 50 52 53 56 59 60 60 60 62 63 62 61 59 59 60 62
30 33 37 43 46 44 46 47 45 42 35 30 31 31 27 26 24 22 23 22 20 21 21 21 23 24 27 29 29 29 29 29 30 29 28 27 28 27 25 25 24 23 24 24 23 24 25 25 28 32 33 33 32 34 36 36 34 35 37 36 37 40 41 40 42 44 45 46 45 44 45 48 52 53 54 56 59 59 59 60 60 60 59 58 58 58 58 58